GFSSW_700_temp_021.txt.gz
Temp
8 8 8 8 8 8 9 9 9 9 9 9 9 9 9 9 9 10 10 10 10 10 9 10 10 10 9 9 9 10 10 9 9 9 9 9 8 8 9 9 8 8 8 8 8
8 8 8 8 8 8 8 8 8 8 9 9 9 9 9 9 9 9 10 9 9 9 9 9 9 9 9 9 9 9 9 9 9 9 9 8 8 9 9 9 8 8 8 8 9
7 7 8 8 8 8 8 8 8 8 8 9 9 9 9 9 9 9 9 9 9 9 9 9 9 9 9 9 9 9 9 9 9 9 9 9 8 9 8 9 9 9 9 9 9
7 7 7 8 8 8 8 8 8 8 8 8 8 9 9 9 9 8 8 8 8 8 8 9 9 8 8 8 9 9 8 8 8 8 8 8 9 8 8 8 8 9 9 8 8
7 7 7 7 7 8 8 8 8 8 8 8 8 8 8 8 8 8 8 8 8 8 8 8 8 8 8 8 8 8 8 8 8 8 8 8 9 9 8 7 7 7 8 9 8
7 7 7 7 7 7 7 8 8 8 8 8 8 8 8 8 8 8 8 8 8 8 8 8 8 8 7 7 7 7 7 7 8 8 8 8 8 8 7 7 7 7 7 7 8
7 7 7 7 7 7 7 7 7 7 7 7 7 7 8 8 8 8 8 8 8 7 7 7 7 7 7 7 7 7 7 7 7 8 7 8 8 8 7 7 7 7 7 7 7
6 6 6 6 6 6 6 6 6 7 7 7 7 7 8 8 8 8 8 8 8 7 7 6 6 6 6 6 6 6 6 7 7 7 7 6 8 7 7 7 7 7 7 7 8
6 6 6 6 6 6 6 6 6 6 6 7 7 7 7 8 8 8 8 8 7 7 7 6 6 6 6 5 5 5 6 6 6 7 6 6 6 7 6 6 6 6 7 8 8
6 6 6 6 6 6 6 6 6 6 6 6 6 6 7 8 8 7 7 7 7 7 7 6 6 6 6 5 5 6 6 5 6 7 6 6 5 6 6 6 6 6 7 7 7
5 5 5 5 5 5 5 5 5 6 6 6 6 6 7 7 7 7 7 6 6 6 6 6 5 6 7 5 5 5 5 5 6 6 5 5 5 5 6 6 6 7 7 7 7
5 5 5 4 5 5 5 5 5 5 5 5 5 6 6 6 6 6 6 6 6 5 5 5 5 6 5 5 5 5 4 5 5 6 4 4 4 5 5 5 6 6 7 7 7
4 5 4 4 4 4 4 4 4 4 4 5 5 5 6 6 6 6 6 5 5 4 4 4 4 4 4 4 4 4 4 4 4 4 4 3 4 5 5 6 6 6 7 6 5
4 4 4 4 4 4 4 4 3 3 3 4 6 5 6 5 4 5 5 4 4 4 3 2 4 4 4 4 3 3 4 3 3 3 2 3 2 4 5 6 6 7 6 5 5
4 3 3 3 3 3 3 3 3 3 -0 4 4 5 5 5 4 4 4 3 3 4 3 3 3 3 3 4 3 3 3 3 3 3 2 3 2 3 5 6 6 6 5 5 5
3 3 3 3 3 2 2 2 2 1 -0 3 4 5 4 4 3 4 4 3 3 2 3 3 2 3 2 3 3 3 3 3 3 2 -1 3 3 2 5 5 5 4 5 5 5
2 2 2 2 2 2 2 1 0 0 2 3 4 5 4 3 3 3 3 4 4 3 3 3 3 3 2 2 2 3 3 2 -1 -2 -2 3 2 4 4 4 4 4 4 4 3
2 2 2 2 2 1 1 0 0 2 2 4 4 4 3 3 3 3 2 3 3 3 3 3 2 3 3 3 4 3 3 2 -2 -3 -2 1 1 4 3 3 3 3 3 3 2
1 1 1 2 1 1 0 -0 0 1 3 2 3 2 3 3 3 3 3 3 3 3 2 2 2 3 3 3 3 2 2 2 2 1 -2 2 2 2 2 3 2 2 2 1 0
1 1 1 1 1 1 1 0 1 1 1 2 2 3 3 3 2 2 2 2 3 3 2 2 1 2 2 2 2 2 2 1 0 -4 -6 -1 -0 2 2 2 2 1 0 -0 -1
1 0 0 1 1 0 -0 -0 -0 -0 1 0 2 2 2 2 2 2 2 2 2 3 2 1 1 1 1 1 2 1 1 1 1 1 -4 -6 0 1 1 1 0 -0 -1 -2 -2
1 1 0 0 1 0 -0 -0 -0 0 -0 0 0 1 0 1 1 1 1 2 1 2 2 1 1 -0 0 0 1 1 1 1 -0 -1 -1 -1 -1 -1 -1 -1 -0 -1 -2 -3 -3
1 1 -0 -0 0 -0 -1 -0 -0 -0 -0 -0 -0 -0 -1 -1 0 0 1 1 1 1 0 0 -0 -1 -1 -1 -1 -1 -0 -0 -1 -1 -1 -3 -2 -1 -2 -2 -2 -2 -3 -3 -4
-0 -0 -1 -1 -0 -0 -1 -1 -1 -1 -1 -1 -1 -1 -1 -1 -1 -1 -1 -0 -0 -1 -1 -1 -1 -1 -1 -1 -1 -1 -1 -1 -2 -3 -3 -3 -2 -3 -3 -3 -3 -3 -4 -4 -4
-2 -1 -1 -2 -1 -1 -1 -1 -2 -2 -2 -1 -1 -1 -1 -1 -1 -2 -2 -2 -2 -2 -2 -2 -2 -2 -2 -2 -2 -2 -2 -2 -2 -3 -4 -3 -4 -3 -3 -3 -4 -4 -4 -5 -5
-2 -1 -2 -1 -2 -2 -2 -2 -2 -2 -2 -2 -2 -2 -2 -2 -2 -2 -2 -3 -2 -3 -3 -3 -3 -3 -3 -3 -3 -3 -3 -4 -4 -5 -5 -5 -4 -3 -3 -3 -4 -4 -5 -5 -6
-3 -2 -2 -2 -2 -2 -2 -2 -2 -2 -2 -2 -2 -2 -2 -2 -3 -4 -4 -4 -4 -4 -4 -4 -4 -4 -5 -5 -5 -6 -4 -4 -4 -4 -4 -5 -3 -4 -4 -4 -5 -5 -5 -6 -7

GFSSW_700_temp_024.txt.gz
Temp
7 8 8 8 8 8 8 8 8 9 9 9 9 9 9 9 9 9 10 10 10 10 10 10 10 9 9 9 10 9 9 10 10 9 9 8 8 8 9 8 8 9 9 9 9
7 7 7 7 8 8 8 8 8 8 9 9 9 9 9 9 9 9 9 10 9 9 9 9 9 9 9 9 9 9 9 9 9 9 9 8 8 8 8 8 8 8 9 9 9
7 7 7 7 7 8 8 8 8 8 8 8 9 9 9 9 9 9 9 9 9 9 9 9 9 9 9 9 9 9 9 9 9 9 9 9 8 8 8 9 8 8 8 8 8
7 7 7 7 7 7 7 8 8 8 8 8 8 9 9 9 9 9 9 9 9 8 8 8 8 8 9 8 9 8 8 8 8 8 8 8 8 8 8 8 9 8 8 8 8
7 7 7 7 7 7 7 7 7 8 8 8 8 8 8 8 8 8 8 8 8 8 8 8 8 8 8 8 8 8 8 8 8 8 8 8 8 8 7 7 7 7 8 8 8
6 7 7 7 7 7 7 7 7 7 8 8 8 8 8 8 8 8 8 8 8 8 8 8 8 8 7 7 7 7 7 8 8 8 8 8 8 8 7 7 7 7 7 8 8
6 6 6 7 7 7 7 7 7 7 7 7 7 7 7 8 7 8 8 8 8 8 7 7 7 7 7 7 7 7 7 7 8 8 8 8 8 8 7 7 7 7 7 7 7
6 6 6 6 6 7 7 7 7 7 7 7 7 7 7 8 8 7 8 8 8 7 7 7 7 7 6 6 6 6 6 7 7 7 7 7 8 7 7 7 7 7 7 7 7
6 6 6 6 6 6 6 6 6 6 6 6 7 7 7 8 8 8 8 8 7 7 7 6 6 6 6 6 5 6 6 6 6 7 6 6 7 7 6 6 6 6 6 6 7
6 6 6 6 6 6 6 6 6 6 6 6 6 6 7 7 7 7 7 7 7 7 6 6 6 6 6 6 6 6 6 5 7 6 5 5 6 7 6 6 6 6 6 6 7
5 5 5 5 5 5 5 5 5 5 6 6 6 6 6 7 7 7 7 7 7 6 6 6 5 7 7 6 5 5 5 5 6 6 5 5 4 5 6 6 6 6 6 6 7
5 5 5 5 5 5 5 5 5 5 5 6 6 6 6 6 6 6 6 6 6 6 5 5 5 6 5 5 5 5 5 5 5 5 4 4 4 5 5 5 5 6 6 6 7
4 4 4 4 4 4 4 4 4 4 4 5 5 5 5 5 6 6 6 5 5 5 5 4 5 5 5 5 4 4 4 4 4 4 4 4 3 6 6 5 5 6 6 6 6
4 4 4 4 4 4 4 4 4 3 2 4 6 6 6 6 5 6 5 4 3 4 3 3 4 4 4 4 4 3 4 3 3 2 2 2 2 4 6 6 6 6 6 6 6
3 3 3 3 3 4 3 3 3 2 -1 4 4 5 6 5 5 6 5 4 3 3 3 3 3 3 4 4 3 3 3 3 2 2 2 2 1 3 5 6 6 6 6 5 5
3 3 3 3 3 3 3 2 2 1 -1 4 4 5 5 5 5 4 4 3 2 1 1 2 2 3 3 3 3 2 2 2 2 2 -1 3 3 2 4 5 5 5 5 5 4
2 2 2 2 3 2 2 1 0 -0 2 3 4 5 5 5 4 3 3 4 3 1 2 2 3 3 2 2 2 2 2 1 -1 -2 -2 3 2 4 3 4 4 4 4 5 4
2 2 1 2 2 1 1 -0 -1 2 3 3 4 4 4 4 4 3 3 2 2 3 3 3 2 3 4 3 3 2 2 2 -2 -3 -2 1 1 3 4 4 4 4 4 4 4
1 0 1 1 1 -0 -1 -0 0 1 3 3 3 3 3 4 3 3 2 3 3 4 3 3 3 3 3 4 3 2 1 2 1 0 -2 2 2 2 2 3 3 3 3 3 2
0 0 0 1 0 0 0 -0 1 1 1 2 3 3 3 3 3 2 2 3 3 3 3 3 2 3 3 2 2 2 2 1 1 -3 -5 -0 0 2 2 2 2 2 2 2 1
0 -0 0 0 1 -0 -1 0 -0 -0 0 1 2 3 3 3 3 3 3 3 3 3 2 2 2 1 1 1 2 1 0 1 1 1 -3 -5 1 1 1 1 1 1 1 0 -1
-0 0 0 0 0 -0 -0 0 -0 -0 -0 0 0 1 2 3 3 3 3 3 2 3 2 2 1 1 1 1 1 1 1 1 1 -1 -1 -1 0 0 0 -0 -1 -0 -1 -1 -2
0 -0 -0 -0 -0 -0 0 -0 -0 -0 -0 0 0 1 1 1 1 1 2 2 1 2 2 2 0 -0 -1 -1 -0 -0 0 0 0 0 0 -1 -1 -0 -1 -1 -1 -1 -1 -2 -2
-1 -1 -1 -1 -0 -0 -0 -0 -0 -1 -1 -0 0 0 0 0 -0 0 0 -0 -1 0 1 0 0 0 -0 1 0 -0 -1 -0 -0 -2 -1 -1 -1 -1 -2 -2 -2 -2 -2 -3 -4
-2 -1 -1 -1 -1 -1 -0 -1 -1 -1 -1 -1 -1 -0 -0 -0 -0 -0 -1 -2 -1 -1 -1 -2 -2 -1 -1 -1 -1 -1 -1 -1 -2 -1 -2 -2 -2 -2 -2 -2 -2 -3 -4 -4 -4
-2 -2 -2 -1 -1 -1 -1 -0 -1 -1 -1 -1 -1 -0 -0 -1 -0 -1 -1 -2 -1 -2 -2 -2 -2 -2 -2 -2 -2 -2 -2 -2 -3 -3 -3 -3 -3 -2 -2 -3 -4 -4 -4 -4 -4
-3 -3 -3 -2 -2 -2 -1 -1 -1 -1 -2 -1 -1 -1 -2 -2 -2 -2 -2 -2 -2 -2 -2 -3 -3 -4 -4 -3 -3 -4 -3 -3 -3 -3 -3 -4 -3 -3 -4 -4 -4 -4 -4 -5 -6

GFSSW_700_temp_030.txt.gz
Temp
7 7 7 7 7 8 8 8 8 8 8 9 9 9 9 9 9 9 9 10 10 10 10 10 10 10 10 10 10 10 10 9 9 9 9 9 8 8 8 8 9 9 8 8 8
7 7 7 7 7 7 8 8 8 8 8 8 9 9 9 9 9 9 9 10 10 10 10 10 9 9 9 9 9 9 9 9 9 9 9 9 8 8 8 8 8 9 9 9 8
7 7 7 7 7 7 7 8 8 8 8 8 9 9 9 9 9 9 10 10 10 10 9 9 9 9 9 9 9 9 9 9 9 9 8 8 8 8 8 8 8 9 9 8 8
6 6 7 7 7 7 7 7 7 8 8 8 8 8 9 9 9 9 9 9 9 9 9 9 9 9 9 9 9 9 9 9 9 8 8 8 8 8 8 8 8 8 8 8 8
6 6 6 7 7 7 7 7 7 7 8 8 8 8 8 8 9 8 8 9 9 9 8 8 8 8 8 8 8 8 8 8 8 8 8 8 8 8 8 8 8 8 8 7 8
6 6 6 6 6 7 7 7 7 7 7 8 8 8 8 8 8 8 8 8 8 8 8 8 8 7 8 8 8 8 8 8 8 8 8 8 8 8 8 8 8 8 8 8 8
6 6 6 6 6 6 6 6 7 7 7 7 7 8 8 8 8 8 8 8 8 8 8 7 7 7 8 7 8 8 8 8 8 8 8 8 8 8 8 8 8 8 8 7 7
5 6 6 6 6 6 6 6 6 6 7 7 7 7 7 8 8 8 7 7 7 7 7 7 7 7 7 7 7 7 7 7 8 8 8 8 8 8 8 8 7 7 7 7 7
5 5 5 6 6 6 6 6 6 6 6 6 7 7 7 8 8 7 7 7 7 7 7 7 7 7 7 7 6 7 7 7 7 7 7 7 7 7 7 7 7 7 6 6 6
5 5 5 5 5 5 5 5 6 6 6 6 6 6 7 7 7 7 7 7 7 7 7 6 6 6 6 6 7 6 7 7 7 7 6 6 7 6 6 6 6 6 6 6 6
5 5 5 5 5 5 5 5 5 5 6 6 6 6 6 7 7 7 7 7 7 7 7 6 6 7 8 7 6 6 6 6 6 6 5 5 6 6 5 5 5 5 5 5 5
4 4 4 5 4 5 5 5 5 5 5 6 5 5 5 6 6 6 6 6 7 7 6 6 6 7 6 6 6 6 5 6 6 5 5 5 5 6 5 6 6 6 6 5 5
4 4 4 4 4 4 4 4 4 4 4 6 5 5 5 5 5 6 5 5 6 6 6 6 6 6 6 5 5 5 5 5 5 5 4 4 4 6 6 6 7 6 6 6 5
3 3 3 3 4 4 4 3 3 3 2 4 6 6 5 5 5 5 5 5 5 5 5 4 5 5 5 5 4 4 5 4 4 3 3 3 6 5 6 7 8 8 7 7 6
2 2 3 3 3 4 4 3 2 2 2 5 4 5 6 5 5 6 6 5 4 5 4 5 5 5 5 5 4 3 3 3 2 2 2 2 2 4 7 7 7 7 7 7 6
2 2 2 2 2 3 2 2 1 1 2 4 4 5 5 5 5 5 5 5 4 3 3 3 4 4 3 3 3 3 2 2 1 1 1 2 2 4 6 8 7 7 7 7 6
1 0 0 1 2 2 1 0 -0 1 2 3 4 5 5 5 5 4 4 4 4 2 2 3 4 4 3 2 2 2 1 2 2 1 3 3 0 4 5 7 7 7 6 6 6
1 0 -0 0 0 0 -0 -1 -0 3 3 3 3 4 5 5 4 4 4 3 3 3 3 4 3 5 4 3 2 2 1 3 2 2 4 0 1 4 5 5 5 6 6 6 5
1 0 -0 -0 -1 -1 -1 -1 1 2 3 2 3 3 3 4 4 4 4 5 5 5 3 4 3 4 4 3 1 0 -0 2 1 0 -0 3 3 4 5 5 5 5 5 5 4
0 -1 -1 -1 -1 -1 -1 -1 0 1 1 2 2 3 4 4 4 3 4 5 5 6 5 4 3 3 3 2 0 1 2 -0 0 1 1 2 1 5 4 4 4 4 4 3 3
-1 -1 -1 -1 -1 -1 -1 -1 -1 -0 -0 1 2 2 2 3 4 4 4 4 5 5 4 3 2 2 2 1 2 1 0 1 1 2 2 4 4 4 3 4 3 3 3 2 2
-0 -1 -1 -1 -2 -2 -1 -0 -2 -1 -1 -0 1 2 2 2 3 3 4 4 4 4 4 4 1 1 2 2 2 1 1 2 2 -0 1 1 3 3 3 3 2 2 1 1 0
-1 -1 -1 -1 -1 -2 -1 -1 -1 -2 -1 -1 -0 0 1 1 1 2 3 3 3 3 4 3 -1 -0 1 -0 0 0 1 2 2 2 2 1 2 3 2 2 1 1 0 -1 -1
-1 -1 -2 -1 -1 -1 -1 -1 -1 -2 -2 -1 -1 -1 -0 0 1 1 2 2 2 2 3 2 1 1 2 3 2 1 2 1 1 1 1 1 2 2 1 1 1 0 -0 -1 -1
-3 -2 -2 -1 -1 -1 -1 -1 -1 -1 -1 -1 -1 -1 -1 -1 -0 0 0 1 1 1 1 0 -1 0 1 2 2 2 3 2 1 2 1 2 1 1 1 1 1 -0 -1 -1 -2
-3 -3 -2 -2 -1 -1 -1 -1 -1 -1 -1 -1 -1 -1 -1 -0 0 0 -1 -0 1 0 0 -1 -1 -1 -0 -0 0 0 1 1 2 1 1 0 1 0 1 -0 0 -0 -1 -2 -2
-3 -3 -4 -2 -2 -1 -1 -1 -0 -1 -1 -1 -0 -0 -1 0 -0 -1 -1 -1 -0 -0 -1 -1 -2 -2 -2 -2 -1 -3 0 0 1 1 1 -0 3 1 1 0 -0 -1 -2 -3 -3

GFSSW_700_temp_033.txt.gz
Temp
6 6 7 7 7 7 7 8 8 8 8 8 8 9 9 9 9 9 9 10 10 10 10 10 10 10 10 10 10 10 9 10 10 10 9 10 9 9 8 8 9 8 8 8 8
6 6 7 7 7 7 7 7 8 8 8 8 8 9 9 9 9 9 9 10 10 10 10 10 10 9 9 9 9 9 9 10 9 9 8 9 9 9 8 9 9 9 9 8 8
6 6 6 7 7 7 7 7 8 8 8 8 8 8 9 9 9 9 9 10 10 10 9 9 9 9 9 9 9 9 9 9 9 9 9 9 8 8 8 8 8 9 9 9 8
6 6 6 6 7 7 7 7 7 7 8 8 8 8 8 8 8 9 9 9 9 9 9 9 9 9 9 9 9 9 9 9 9 9 9 8 9 8 8 8 9 9 9 8 8
6 6 6 6 7 7 7 7 7 7 8 8 8 8 8 8 9 8 9 9 9 9 9 8 8 8 8 8 8 8 9 9 9 8 8 8 8 8 9 9 9 9 8 8 8
6 6 6 6 6 6 7 7 7 7 7 8 8 8 8 8 8 8 8 8 8 8 8 8 8 8 8 8 8 8 8 8 8 8 8 8 8 8 9 9 8 8 8 8 8
6 6 6 6 6 6 6 7 7 7 7 7 7 7 8 8 8 8 8 8 8 8 8 8 7 7 7 7 8 8 8 8 8 8 8 8 8 9 8 9 8 8 8 7 7
5 5 5 6 6 6 6 6 6 7 7 7 7 7 7 8 8 8 8 8 8 7 7 7 7 7 7 7 7 7 7 7 7 8 8 8 8 8 9 8 8 8 7 7 7
5 5 5 5 5 6 6 6 6 6 6 6 6 7 7 8 8 8 7 7 7 7 7 7 7 7 7 6 6 7 8 8 7 8 8 7 8 8 8 8 8 8 7 7 7
4 5 5 5 5 5 5 5 6 6 6 6 6 6 6 7 7 7 7 7 7 7 6 6 6 6 6 5 8 8 7 7 7 6 7 7 7 7 7 7 7 7 7 7 7
4 4 4 5 5 5 5 5 5 5 6 6 6 6 6 7 7 7 7 7 6 6 6 6 6 7 7 6 6 6 6 6 7 6 6 7 6 6 6 6 6 6 7 7 7
4 4 4 4 4 4 5 5 5 5 5 6 5 5 6 6 6 6 6 6 6 7 6 6 6 7 5 6 6 6 5 6 6 5 5 6 5 6 6 5 7 6 6 7 6
3 3 4 4 3 4 4 4 4 4 4 5 5 5 5 5 5 6 5 5 6 6 6 6 6 7 6 6 6 6 5 5 6 4 5 5 5 6 8 6 6 7 6 7 6
2 3 3 3 3 3 4 3 3 3 2 3 5 6 5 5 5 5 5 5 5 5 5 4 5 5 5 5 5 5 5 5 5 3 5 3 6 7 6 6 7 7 7 7 6
2 2 1 3 3 4 3 3 2 2 3 5 4 5 6 6 5 6 6 5 5 5 4 5 5 5 5 6 4 4 4 4 4 3 2 3 2 6 6 5 8 7 7 7 7
2 2 1 1 2 3 2 2 1 0 3 4 4 4 4 5 5 5 5 5 4 3 4 4 4 4 4 5 4 3 3 3 2 1 2 3 3 6 6 7 7 8 7 7 7
1 2 1 1 2 2 0 2 -1 1 3 4 3 4 5 5 5 4 4 5 4 2 2 3 3 3 3 3 3 3 2 4 3 2 3 4 3 5 6 7 7 7 7 6 6
1 1 1 1 1 0 -2 -2 -2 2 2 3 4 3 4 5 4 4 3 3 4 4 4 3 3 4 5 5 3 3 2 4 3 5 6 2 2 4 6 6 7 7 7 6 6
1 1 1 1 0 0 -1 -3 -2 5 2 3 2 2 2 3 3 3 3 4 3 3 3 3 3 4 5 5 3 1 0 2 2 2 1 4 4 4 6 7 7 7 7 7 6
0 0 -0 0 0 -0 -2 -2 2 0 2 3 2 3 3 3 3 3 2 5 3 6 3 3 4 4 4 4 2 1 1 -0 0 2 3 6 6 6 6 6 6 6 6 6 5
-0 -1 -0 -0 -0 -2 -2 -1 3 -0 0 2 2 2 3 2 4 4 4 4 5 6 4 3 3 3 2 2 4 1 -0 1 2 3 4 5 7 6 5 6 6 6 5 5 4
-2 -1 -1 -1 -1 -1 -2 3 -1 -2 -1 0 1 1 2 2 3 3 5 5 5 6 5 5 2 2 2 2 3 0 1 1 2 1 2 4 5 5 5 5 5 5 4 4 4
-2 -1 -1 -1 -1 -1 -1 -2 -2 -2 -1 -1 -0 0 1 2 1 3 3 4 5 4 5 5 1 2 1 -0 -1 0 2 1 1 3 3 2 4 5 4 4 4 4 4 4 3
-2 -2 -2 -1 -1 -1 -1 -1 -2 -2 -1 -1 -1 -0 0 1 1 2 3 2 3 4 3 4 3 1 2 3 3 1 1 1 0 1 2 2 3 4 4 3 3 4 3 3 2
-3 -3 -2 -1 -1 -1 -1 -0 -0 -2 -2 -1 -1 -1 -1 -1 0 1 1 1 1 2 2 2 1 0 1 2 2 2 2 2 1 3 2 3 3 3 3 3 3 3 2 2 1
-3 -3 -3 -2 -2 -1 -2 -1 -2 -1 -2 -1 -2 -1 -1 -1 0 0 0 0 1 1 1 0 -1 -2 -1 0 0 -0 0 1 2 3 2 2 3 3 2 2 2 2 1 1 0
-4 -4 -4 -3 -3 -2 -2 -2 -1 -1 -2 -1 -1 -2 -1 0 1 0 -0 -0 -0 -0 -0 -1 -2 -2 -2 -1 -1 -2 2 -0 1 1 2 1 4 2 1 1 1 1 1 -1 -0